This demonstration page uses our WeatherBlox Daily Observations layout. Learn more.

Left ArrowRight Arrow

Hourly Observations for November 4, 2015

Temp ( °F °C ) Dew Point ( °F °C ) Humidity (%) Winds ( mph kmh ) Pressure ( in mb ) Visibility ( mi km ) Precip ( " mm )
12:53 am 00:53 Cloudy 65 18.3 62 16.7 90 90 E 5 7 30.15 1021 10 16 0.00 0.00
1:53 am 01:53 Cloudy 65 18.3 61 16.1 87 87 E 6 9 30.14 1021 10 16 0.00 0.00
2:53 am 02:53 Cloudy 65 18.3 61 16.1 87 87 ENE 6 9 30.15 1021 10 16 0.00 0.00
3:53 am 03:53 Cloudy 64 17.8 62 16.7 93 93 ENE 6 9 30.15 1021 7 11 0.00 0.03
4:53 am 04:53 Cloudy 64 17.8 61 16.1 90 90 ENE 8 13 30.16 1021 10 16 0.00 0.00
5:53 am 05:53 Cloudy 64 17.8 61 16.1 90 90 ENE 6 9 30.18 1022 8 13 0.00 0.00
6:53 am 06:53 Cloudy 63 17.2 61 16.1 93 93 NE 5 7 30.19 1022 8 13 0.00 0.00
7:53 am 07:53 Cloudy 64 17.8 61 16.1 90 90 NE 6 9 30.20 1023 10 16 0.00 0.00
8:53 am 08:53 Cloudy 65 18.3 61 16.1 87 87 ENE 7 11 30.22 1024 10 16 0.00 0.00
9:53 am 09:53 Cloudy 66 18.9 61 16.1 84 84 E 7 11 30.23 1024 10 16 0.00 0.00
10:53 am 10:53 Cloudy 67 19.4 62 16.7 84 84 ENE 8 13 30.23 1024 10 16 0.00 0.00
11:36 am 11:36 Cloudy 68 20 63 17 83 83 ESE 7 11 30.21 1023 10 16 0.00 0.00
11:53 am 11:53 Cloudy 68 20 62 16.7 81 81 E 8 13 30.22 1023 10 16 0.00 0.00
12:53 pm 12:53 Cloudy 69 20.6 63 17.2 81 81 E 3 6 30.20 1023 10 16 0.00 0.00
1:53 pm 13:53 Cloudy 70 21.1 63 17.2 79 79 SE 5 7 30.18 1022 10 16 0.00 0.00
2:53 pm 14:53 Cloudy 70 21.1 63 17.2 79 79 ENE 6 9 30.18 1022 10 16 0.00 0.00
3:15 pm 15:15 Cloudy 70 21.1 63 17.2 79 79 SE 6 9 30.18 1022 10 16 0.00 0.00
3:53 pm 15:53 Cloudy 70 21.1 63 17.2 79 79 ESE 5 7 30.19 1022 10 16 0.00 0.00
4:30 pm 16:30 Cloudy 70 21 63 17 78 78 ESE 7 11 30.18 1022 10 16 0.00 0.00
4:53 pm 16:53 Cloudy 69 20.6 63 17.2 81 81 E 5 7 30.19 1022 10 16 0.00 0.00
5:41 pm 17:41 Cloudy 68 20 63 17.2 84 84 ENE 8 13 30.18 1022 10 16 0.00 0.00
5:53 pm 17:53 Cloudy 67 19.4 63 17.2 87 87 ENE 9 15 30.19 1022 10 16 0.00 0.00
6:53 pm 18:53 Cloudy 67 19.4 63 17.2 87 87 ENE 6 9 30.21 1023 10 16 0.00 0.00
7:53 pm 19:53 Cloudy with Mist and Fog 67 19.4 63 17.2 87 87 E 6 9 30.22 1023 6 10 0.00 0.00
8:53 pm 20:53 Cloudy with Mist and Fog 66 18.9 64 17.8 93 93 E 7 11 30.22 1023 4 6 0.00 0.00
9:53 pm 21:53 Cloudy with Mist and Fog 66 18.9 64 17.8 93 93 E 5 7 30.22 1024 5 8 0.00 0.00
10:18 pm 22:18 Cloudy with Mist and Fog 66 19 63 17 88 88 E 3 6 30.21 1023 5 8 0.00 0.00
10:53 pm 22:53 Cloudy 65 18.3 63 17.2 93 93 NNE 3 6 30.23 1024 9 14 0.00 0.00
11:53 pm 23:53 Cloudy 65 18.3 63 17.2 93 93 ENE 5 7 30.23 1024 10 16 0.00 0.00

Powered by AerisWeather